Time,TemperatureF,DewpointF,PressureIn,WindDirection,WindDirectionDegrees,WindSpeedMPH,WindSpeedGustMPH,Humidity,HourlyPrecipIn,Conditions,Clouds,dailyrainin,SoftwareType,DateUTC
2013-01-18 00:00:00,17.0,12.5,30.40,South,188,0.0,2.0,82,0.00,,,0.00,WeatherCatV1.01B143,2013-01-18 06:00:00,
2013-01-18 00:05:00,17.1,12.6,30.40,WSW,243,0.0,2.0,82,0.00,,,0.00,WeatherCatV1.01B143,2013-01-18 06:05:00,
2013-01-18 00:10:00,17.2,12.9,30.40,WSW,255,0.0,1.0,83,0.00,,,0.00,WeatherCatV1.01B143,2013-01-18 06:10:00,
2013-01-18 00:15:00,17.3,13.0,30.40,SSW,204,0.0,0.0,83,0.00,,,0.00,WeatherCatV1.01B143,2013-01-18 06:15:00,
2013-01-18 00:20:00,17.3,13.0,30.40,SSW,204,0.0,0.0,83,0.00,,,0.00,WeatherCatV1.01B143,2013-01-18 06:20:00,
2013-01-18 00:25:00,17.1,12.8,30.39,SSW,203,0.0,0.0,83,0.00,,,0.00,WeatherCatV1.01B143,2013-01-18 06:25:00,
2013-01-18 00:30:00,17.0,12.7,30.40,SSW,204,0.0,0.0,83,0.00,,,0.00,WeatherCatV1.01B143,2013-01-18 06:30:00,
2013-01-18 00:35:00,16.8,12.6,30.39,SSW,204,0.0,0.0,83,0.00,,,0.00,WeatherCatV1.01B143,2013-01-18 06:35:00,
2013-01-18 00:40:00,16.6,12.4,30.40,SSW,204,0.0,0.0,83,0.00,,,0.00,WeatherCatV1.01B143,2013-01-18 06:40:00,
2013-01-18 00:45:00,16.6,12.6,30.40,SSW,204,0.0,0.0,84,0.00,,,0.00,WeatherCatV1.01B143,2013-01-18 06:45:00,
2013-01-18 00:51:00,16.5,12.5,30.40,SSW,203,0.0,0.0,84,0.00,,,0.00,WeatherCatV1.01B143,2013-01-18 06:51:00,
2013-01-18 00:56:00,16.5,12.5,30.41,SSW,203,0.0,0.0,84,0.00,,,0.00,WeatherCatV1.01B143,2013-01-18 06:56:00,
2013-01-18 01:01:00,16.5,12.8,30.40,SSW,204,0.0,0.0,85,0.00,,,0.00,WeatherCatV1.01B143,2013-01-18 07:01:00,
2013-01-18 01:06:00,16.4,12.7,30.41,SSW,204,0.0,0.0,85,0.00,,,0.00,WeatherCatV1.01B143,2013-01-18 07:06:00,
2013-01-18 01:11:00,16.4,12.7,30.41,SSW,204,0.0,0.0,85,0.00,,,0.00,WeatherCatV1.01B143,2013-01-18 07:11:00,
2013-01-18 01:16:00,16.4,12.7,30.41,SSW,204,0.0,0.0,85,0.00,,,0.00,WeatherCatV1.01B143,2013-01-18 07:16:00,
2013-01-18 01:21:00,16.3,12.6,30.41,SSW,204,0.0,0.0,85,0.00,,,0.00,WeatherCatV1.01B143,2013-01-18 07:21:00,
2013-01-18 01:26:00,16.3,12.6,30.41,SSW,199,0.0,0.0,85,0.00,,,0.00,WeatherCatV1.01B143,2013-01-18 07:26:00,
2013-01-18 01:31:00,16.5,13.1,30.40,SSW,199,0.0,0.0,86,0.00,,,0.00,WeatherCatV1.01B143,2013-01-18 07:31:00,
2013-01-18 01:36:00,16.6,13.2,30.40,SSW,198,0.0,0.0,86,0.00,,,0.00,WeatherCatV1.01B143,2013-01-18 07:36:00,
2013-01-18 01:41:00,16.5,13.1,30.41,SSW,198,0.0,0.0,86,0.00,,,0.00,WeatherCatV1.01B143,2013-01-18 07:41:00,
2013-01-18 01:46:00,16.2,12.5,30.41,SSW,198,0.0,0.0,85,0.00,,,0.00,WeatherCatV1.01B143,2013-01-18 07:46:00,
2013-01-18 01:51:00,16.0,12.6,30.42,SSW,198,0.0,0.0,86,0.00,,,0.00,WeatherCatV1.01B143,2013-01-18 07:51:00,
2013-01-18 01:56:00,15.9,12.7,30.42,South,188,1.0,1.0,87,0.00,,,0.00,WeatherCatV1.01B143,2013-01-18 07:56:00,
2013-01-18 02:01:00,16.1,13.2,30.42,SSW,205,0.0,0.0,88,0.00,,,0.00,WeatherCatV1.01B143,2013-01-18 08:01:00,
2013-01-18 02:06:00,16.3,13.4,30.42,South,171,0.0,1.0,88,0.00,,,0.00,WeatherCatV1.01B143,2013-01-18 08:06:00,
2013-01-18 02:11:00,16.4,13.2,30.42,South,173,0.0,1.0,87,0.00,,,0.00,WeatherCatV1.01B143,2013-01-18 08:11:00,
2013-01-18 02:16:00,16.5,13.3,30.42,SSE,166,0.0,1.0,87,0.00,,,0.00,WeatherCatV1.01B143,2013-01-18 08:16:00,
2013-01-18 02:21:00,16.7,13.5,30.42,SSW,201,0.0,0.0,87,0.00,,,0.00,WeatherCatV1.01B143,2013-01-18 08:21:00,
2013-01-18 02:26:00,16.8,13.6,30.42,SSW,203,0.0,0.0,87,0.00,,,0.00,WeatherCatV1.01B143,2013-01-18 08:26:00,
2013-01-18 02:31:00,16.8,13.6,30.41,SSW,201,0.0,0.0,87,0.00,,,0.00,WeatherCatV1.01B143,2013-01-18 08:31:00,
2013-01-18 02:36:00,17.0,13.8,30.41,SSW,201,0.0,0.0,87,0.00,,,0.00,WeatherCatV1.01B143,2013-01-18 08:36:00,
2013-01-18 02:41:00,17.1,13.9,30.41,SSE,153,0.0,0.0,87,0.00,,,0.00,WeatherCatV1.01B143,2013-01-18 08:41:00,
2013-01-18 02:46:00,17.2,14.0,30.41,SSE,167,0.0,0.0,87,0.00,,,0.00,WeatherCatV1.01B143,2013-01-18 08:46:00,
2013-01-18 02:51:00,17.4,14.2,30.42,SW,224,0.0,1.0,87,0.00,,,0.00,WeatherCatV1.01B143,2013-01-18 08:51:00,
2013-01-18 02:56:00,17.7,14.5,30.42,WSW,246,2.0,3.0,87,0.00,,,0.00,WeatherCatV1.01B143,2013-01-18 08:56:00,
2013-01-18 03:01:00,17.8,14.6,30.42,SW,214,0.0,1.0,87,0.00,,,0.00,WeatherCatV1.01B143,2013-01-18 09:01:00,
2013-01-18 03:06:00,18.1,14.9,30.42,West,269,0.0,0.0,87,0.00,,,0.00,WeatherCatV1.01B143,2013-01-18 09:06:00,
2013-01-18 03:11:00,18.2,15.0,30.42,SSW,205,0.0,0.0,87,0.00,,,0.00,WeatherCatV1.01B143,2013-01-18 09:11:00,
2013-01-18 03:16:00,18.4,15.2,30.41,WSW,240,0.0,0.0,87,0.00,,,0.00,WeatherCatV1.01B143,2013-01-18 09:16:00,
2013-01-18 03:21:00,18.5,15.3,30.41,WSW,240,0.0,0.0,87,0.00,,,0.00,WeatherCatV1.01B143,2013-01-18 09:21:00,
2013-01-18 03:26:00,18.6,15.4,30.41,SSE,160,0.0,1.0,87,0.00,,,0.00,WeatherCatV1.01B143,2013-01-18 09:26:00,
2013-01-18 03:31:00,18.8,15.6,30.41,South,172,1.0,2.0,87,0.00,,,0.00,WeatherCatV1.01B143,2013-01-18 09:31:00,
2013-01-18 03:36:00,19.0,15.5,30.41,South,181,0.0,1.0,86,0.00,,,0.00,WeatherCatV1.01B143,2013-01-18 09:36:00,
2013-01-18 03:41:00,19.1,15.6,30.41,South,181,1.0,1.0,86,0.00,,,0.00,WeatherCatV1.01B143,2013-01-18 09:41:00,
2013-01-18 03:46:00,19.2,15.7,30.40,SSW,205,0.0,0.0,86,0.00,,,0.00,WeatherCatV1.01B143,2013-01-18 09:46:00,
2013-01-18 03:51:00,19.3,15.8,30.40,SW,221,0.0,2.0,86,0.00,,,0.00,WeatherCatV1.01B143,2013-01-18 09:51:00,
2013-01-18 03:56:00,19.4,15.9,30.40,SW,236,0.0,1.0,86,0.00,,,0.00,WeatherCatV1.01B143,2013-01-18 09:56:00,
2013-01-18 04:01:00,19.4,15.9,30.40,South,190,1.0,2.0,86,0.00,,,0.00,WeatherCatV1.01B143,2013-01-18 10:01:00,
2013-01-18 04:06:00,19.4,15.6,30.39,South,177,0.0,1.0,85,0.00,,,0.00,WeatherCatV1.01B143,2013-01-18 10:06:00,
2013-01-18 04:11:00,19.5,16.0,30.39,SSE,163,0.0,0.0,86,0.00,,,0.00,WeatherCatV1.01B143,2013-01-18 10:11:00,
2013-01-18 04:16:00,19.6,16.1,30.39,SSE,163,0.0,0.0,86,0.00,,,0.00,WeatherCatV1.01B143,2013-01-18 10:16:00,
2013-01-18 04:21:00,19.7,16.2,30.38,SSE,163,0.0,0.0,86,0.00,,,0.00,WeatherCatV1.01B143,2013-01-18 10:21:00,
2013-01-18 04:26:00,19.7,16.2,30.38,SSE,165,0.0,0.0,86,0.00,,,0.00,WeatherCatV1.01B143,2013-01-18 10:26:00,
2013-01-18 04:31:00,19.6,16.1,30.37,SSE,165,0.0,0.0,86,0.00,,,0.00,WeatherCatV1.01B143,2013-01-18 10:31:00,
2013-01-18 04:36:00,19.6,16.1,30.37,SSE,165,0.0,0.0,86,0.00,,,0.00,WeatherCatV1.01B143,2013-01-18 10:36:00,
2013-01-18 04:41:00,19.6,16.1,30.37,SSE,165,0.0,0.0,86,0.00,,,0.00,WeatherCatV1.01B143,2013-01-18 10:41:00,
2013-01-18 04:46:00,19.6,16.1,30.37,SSE,165,0.0,0.0,86,0.00,,,0.00,WeatherCatV1.01B143,2013-01-18 10:46:00,
2013-01-18 04:51:00,19.6,16.1,30.37,SSE,165,0.0,0.0,86,0.00,,,0.00,WeatherCatV1.01B143,2013-01-18 10:51:00,
2013-01-18 04:56:00,19.6,16.1,30.36,SSE,165,0.0,0.0,86,0.00,,,0.00,WeatherCatV1.01B143,2013-01-18 10:56:00,
2013-01-18 05:01:00,19.6,16.1,30.36,SSE,165,0.0,0.0,86,0.00,,,0.00,WeatherCatV1.01B143,2013-01-18 11:01:00,
2013-01-18 05:06:00,19.6,16.1,30.36,SSE,165,0.0,0.0,86,0.00,,,0.00,WeatherCatV1.01B143,2013-01-18 11:06:00,
2013-01-18 05:11:00,19.7,16.2,30.36,SSE,165,0.0,0.0,86,0.00,,,0.00,WeatherCatV1.01B143,2013-01-18 11:11:00,
2013-01-18 05:16:00,19.7,16.2,30.36,SSE,165,0.0,0.0,86,0.00,,,0.00,WeatherCatV1.01B143,2013-01-18 11:16:00,
2013-01-18 05:21:00,19.6,16.1,30.36,SSE,165,0.0,0.0,86,0.00,,,0.00,WeatherCatV1.01B143,2013-01-18 11:21:00,
2013-01-18 05:26:00,19.6,16.1,30.36,SSE,165,0.0,0.0,86,0.00,,,0.00,WeatherCatV1.01B143,2013-01-18 11:26:00,
2013-01-18 05:31:00,19.7,16.2,30.36,SSE,165,0.0,0.0,86,0.00,,,0.00,WeatherCatV1.01B143,2013-01-18 11:31:00,
2013-01-18 05:36:00,19.8,16.3,30.36,SSW,205,0.0,0.0,86,0.00,,,0.00,WeatherCatV1.01B143,2013-01-18 11:36:00,
2013-01-18 05:41:00,19.9,16.4,30.36,SSW,205,0.0,1.0,86,0.00,,,0.00,WeatherCatV1.01B143,2013-01-18 11:41:00,
2013-01-18 05:46:00,20.0,16.5,30.36,South,187,3.0,4.0,86,0.00,,,0.00,WeatherCatV1.01B143,2013-01-18 11:46:00,
2013-01-18 05:51:00,20.1,16.6,30.36,SSE,158,2.0,2.0,86,0.00,,,0.00,WeatherCatV1.01B143,2013-01-18 11:51:00,
2013-01-18 05:56:00,20.1,16.6,30.36,SSW,193,3.0,5.0,86,0.00,,,0.00,WeatherCatV1.01B143,2013-01-18 11:56:00,
2013-01-18 06:01:00,20.2,16.7,30.36,SSW,197,2.0,5.0,86,0.00,,,0.00,WeatherCatV1.01B143,2013-01-18 12:01:00,
2013-01-18 06:06:00,20.2,16.7,30.36,South,179,2.0,5.0,86,0.00,,,0.00,WeatherCatV1.01B143,2013-01-18 12:06:00,
2013-01-18 06:11:00,20.2,16.7,30.36,SW,218,2.0,4.0,86,0.00,,,0.00,WeatherCatV1.01B143,2013-01-18 12:11:00,
2013-01-18 06:16:00,20.2,16.7,30.36,SSW,212,1.0,4.0,86,0.00,,,0.00,WeatherCatV1.01B143,2013-01-18 12:16:00,
2013-01-18 06:21:00,20.2,16.7,30.35,SW,214,1.0,3.0,86,0.00,,,0.00,WeatherCatV1.01B143,2013-01-18 12:21:00,
2013-01-18 06:26:00,20.3,16.8,30.35,SSW,193,4.0,5.0,86,0.00,,,0.00,WeatherCatV1.01B143,2013-01-18 12:26:00,
2013-01-18 06:31:00,20.3,16.5,30.35,SSW,207,1.0,3.0,85,0.00,,,0.00,WeatherCatV1.01B143,2013-01-18 12:31:00,
2013-01-18 06:36:00,20.2,16.7,30.35,SSE,163,2.0,5.0,86,0.00,,,0.00,WeatherCatV1.01B143,2013-01-18 12:36:00,
2013-01-18 06:41:00,20.2,16.4,30.34,SW,214,0.0,2.0,85,0.00,,,0.00,WeatherCatV1.01B143,2013-01-18 12:41:00,
2013-01-18 06:46:00,20.1,16.3,30.34,South,176,2.0,5.0,85,0.00,,,0.00,WeatherCatV1.01B143,2013-01-18 12:46:00,
2013-01-18 06:51:00,20.0,16.2,30.34,SSE,148,6.0,6.0,85,0.00,,,0.00,WeatherCatV1.01B143,2013-01-18 12:51:00,
2013-01-18 06:56:00,19.9,16.1,30.33,SW,221,3.0,4.0,85,0.00,,,0.00,WeatherCatV1.01B143,2013-01-18 12:56:00,
2013-01-18 07:01:00,19.8,16.0,30.33,South,190,2.0,2.0,85,0.00,,,0.00,WeatherCatV1.01B143,2013-01-18 13:01:00,
2013-01-18 07:06:00,19.7,15.9,30.33,South,172,2.0,4.0,85,0.00,,,0.00,WeatherCatV1.01B143,2013-01-18 13:06:00,
2013-01-18 07:11:00,19.8,16.0,30.33,South,190,3.0,6.0,85,0.00,,,0.00,WeatherCatV1.01B143,2013-01-18 13:11:00,
2013-01-18 07:16:00,19.8,16.0,30.33,SSW,208,2.0,6.0,85,0.00,,,0.00,WeatherCatV1.01B143,2013-01-18 13:16:00,
2013-01-18 07:21:00,20.0,16.2,30.33,South,183,3.0,4.0,85,0.00,,,0.00,WeatherCatV1.01B143,2013-01-18 13:21:00,
2013-01-18 07:26:00,20.1,16.3,30.33,South,181,3.0,5.0,85,0.00,,,0.00,WeatherCatV1.01B143,2013-01-18 13:26:00,
2013-01-18 07:31:00,20.3,16.5,30.33,SSW,208,3.0,4.0,85,0.00,,,0.00,WeatherCatV1.01B143,2013-01-18 13:31:00,
2013-01-18 07:36:00,20.5,16.7,30.33,South,186,4.0,4.0,85,0.00,,,0.00,WeatherCatV1.01B143,2013-01-18 13:36:00,
2013-01-18 07:41:00,20.7,16.6,30.33,South,173,2.0,6.0,84,0.00,,,0.00,WeatherCatV1.01B143,2013-01-18 13:41:00,
2013-01-18 07:46:00,20.9,16.8,30.33,SSW,197,1.0,4.0,84,0.00,,,0.00,WeatherCatV1.01B143,2013-01-18 13:46:00,
2013-01-18 07:51:00,21.1,17.0,30.32,SSW,195,2.0,4.0,84,0.00,,,0.00,WeatherCatV1.01B143,2013-01-18 13:51:00,
2013-01-18 07:56:00,21.3,17.2,30.32,South,174,2.0,2.0,84,0.00,,,0.00,WeatherCatV1.01B143,2013-01-18 13:56:00,
2013-01-18 08:01:00,21.5,17.4,30.32,SSW,194,1.0,2.0,84,0.00,,,0.00,WeatherCatV1.01B143,2013-01-18 14:01:00,
2013-01-18 08:06:00,21.8,17.4,30.32,SW,233,1.0,5.0,83,0.00,,,0.00,WeatherCatV1.01B143,2013-01-18 14:06:00,
2013-01-18 08:11:00,22.0,17.6,30.32,SSW,195,2.0,4.0,83,0.00,,,0.00,WeatherCatV1.01B143,2013-01-18 14:11:00,
2013-01-18 08:16:00,22.3,17.9,30.32,SW,215,1.0,3.0,83,0.00,,,0.00,WeatherCatV1.01B143,2013-01-18 14:16:00,
2013-01-18 08:21:00,22.6,18.2,30.31,SSE,167,0.0,5.0,83,0.00,,,0.00,WeatherCatV1.01B143,2013-01-18 14:21:00,
2013-01-18 08:26:00,22.9,18.2,30.31,South,188,5.0,6.0,82,0.00,,,0.00,WeatherCatV1.01B143,2013-01-18 14:26:00,
2013-01-18 08:31:00,23.2,18.5,30.31,SW,219,0.0,2.0,82,0.00,,,0.00,WeatherCatV1.01B143,2013-01-18 14:31:00,
2013-01-18 08:36:00,23.6,18.9,30.31,South,186,3.0,7.0,82,0.00,,,0.00,WeatherCatV1.01B143,2013-01-18 14:36:00,
2013-01-18 08:41:00,24.0,19.0,30.31,SSW,201,4.0,7.0,81,0.00,,,0.00,WeatherCatV1.01B143,2013-01-18 14:41:00,
2013-01-18 08:46:00,24.4,19.1,30.30,SSE,159,4.0,6.0,80,0.00,,,0.00,WeatherCatV1.01B143,2013-01-18 14:46:00,
2013-01-18 08:51:00,24.7,19.1,30.30,SSW,203,3.0,8.0,79,0.00,,,0.00,WeatherCatV1.01B143,2013-01-18 14:51:00,
2013-01-18 08:56:00,25.0,19.4,30.30,South,176,4.0,12.0,79,0.00,,,0.00,WeatherCatV1.01B143,2013-01-18 14:56:00,
2013-01-18 09:01:00,25.2,19.6,30.30,SSW,201,5.0,5.0,79,0.00,,,0.00,WeatherCatV1.01B143,2013-01-18 15:01:00,
2013-01-18 09:06:00,25.5,19.9,30.30,SSW,212,7.0,8.0,79,0.00,,,0.00,WeatherCatV1.01B143,2013-01-18 15:06:00,
2013-01-18 09:11:00,25.8,20.2,30.30,SSW,207,1.0,7.0,79,0.00,,,0.00,WeatherCatV1.01B143,2013-01-18 15:11:00,
2013-01-18 09:16:00,26.2,20.6,30.30,SW,229,5.0,8.0,79,0.00,,,0.00,WeatherCatV1.01B143,2013-01-18 15:16:00,
2013-01-18 09:21:00,26.6,21.0,30.30,SW,225,4.0,10.0,79,0.00,,,0.00,WeatherCatV1.01B143,2013-01-18 15:21:00,
2013-01-18 09:26:00,27.0,21.1,30.29,SW,225,3.0,14.0,78,0.00,,,0.00,WeatherCatV1.01B143,2013-01-18 15:26:00,
2013-01-18 09:31:00,27.3,21.1,30.29,South,174,11.0,16.0,77,0.00,,,0.00,WeatherCatV1.01B143,2013-01-18 15:31:00,
2013-01-18 09:36:00,27.7,21.4,30.29,SSW,198,5.0,10.0,77,0.00,,,0.00,WeatherCatV1.01B143,2013-01-18 15:36:00,
2013-01-18 09:41:00,28.1,21.8,30.28,SSE,162,5.0,11.0,77,0.00,,,0.00,WeatherCatV1.01B143,2013-01-18 15:41:00,
2013-01-18 09:46:00,28.4,21.8,30.28,South,177,9.0,11.0,76,0.00,,,0.00,WeatherCatV1.01B143,2013-01-18 15:46:00,
2013-01-18 09:51:00,28.7,22.1,30.28,WSW,240,8.0,8.0,76,0.00,,,0.00,WeatherCatV1.01B143,2013-01-18 15:51:00,
2013-01-18 09:56:00,29.0,22.4,30.27,SW,221,5.0,11.0,76,0.00,,,0.00,WeatherCatV1.01B143,2013-01-18 15:56:00,
2013-01-18 10:01:00,29.2,22.3,30.26,SSE,164,8.0,14.0,75,0.00,,,0.00,WeatherCatV1.01B143,2013-01-18 16:01:00,
2013-01-18 10:06:00,29.3,22.4,30.26,South,169,8.0,14.0,75,0.00,,,0.00,WeatherCatV1.01B143,2013-01-18 16:06:00,
2013-01-18 10:11:00,29.5,22.6,30.26,SE,133,4.0,10.0,75,0.00,,,0.00,WeatherCatV1.01B143,2013-01-18 16:11:00,
2013-01-18 10:16:00,29.7,22.4,30.25,SSW,204,4.0,15.0,74,0.00,,,0.00,WeatherCatV1.01B143,2013-01-18 16:16:00,
2013-01-18 10:21:00,30.0,23.1,30.25,SSE,155,8.0,12.0,75,0.00,,,0.00,WeatherCatV1.01B143,2013-01-18 16:21:00,
2013-01-18 10:26:00,30.4,23.1,30.25,SW,233,6.0,13.0,74,0.00,,,0.00,WeatherCatV1.01B143,2013-01-18 16:26:00,
2013-01-18 10:31:00,30.4,23.1,30.24,SW,214,6.0,16.0,74,0.00,,,0.00,WeatherCatV1.01B143,2013-01-18 16:31:00,
2013-01-18 10:36:00,30.6,23.3,30.24,SSW,204,8.0,18.0,74,0.00,,,0.00,WeatherCatV1.01B143,2013-01-18 16:36:00,
2013-01-18 10:41:00,30.8,23.5,30.23,SSW,212,8.0,18.0,74,0.00,,,0.00,WeatherCatV1.01B143,2013-01-18 16:41:00,
2013-01-18 10:46:00,31.2,23.6,30.22,SSW,204,6.0,15.0,73,0.00,,,0.00,WeatherCatV1.01B143,2013-01-18 16:46:00,
2013-01-18 10:51:00,31.4,23.8,30.22,SSE,166,10.0,19.0,73,0.00,,,0.00,WeatherCatV1.01B143,2013-01-18 16:51:00,
2013-01-18 10:56:00,31.7,23.7,30.21,SSW,204,4.0,21.0,72,0.00,,,0.00,WeatherCatV1.01B143,2013-01-18 16:56:00,
2013-01-18 11:01:00,32.0,24.0,30.21,SSE,163,7.0,16.0,72,0.00,,,0.00,WeatherCatV1.01B143,2013-01-18 17:01:00,
2013-01-18 11:06:00,32.7,24.7,30.20,South,188,5.0,15.0,72,0.00,,,0.00,WeatherCatV1.01B143,2013-01-18 17:06:00,
2013-01-18 11:11:00,33.5,25.1,30.19,SSW,197,12.0,16.0,71,0.00,,,0.00,WeatherCatV1.01B143,2013-01-18 17:11:00,
2013-01-18 11:16:00,34.1,25.0,30.19,SSW,201,7.0,17.0,69,0.00,,,0.00,WeatherCatV1.01B143,2013-01-18 17:16:00,
2013-01-18 11:21:00,34.3,24.9,30.18,SW,215,6.0,22.0,68,0.00,,,0.00,WeatherCatV1.01B143,2013-01-18 17:21:00,
2013-01-18 11:26:00,34.5,25.0,30.17,South,183,16.0,23.0,68,0.00,,,0.00,WeatherCatV1.01B143,2013-01-18 17:26:00,
2013-01-18 11:31:00,34.7,25.6,30.17,South,179,8.0,12.0,69,0.00,,,0.00,WeatherCatV1.01B143,2013-01-18 17:31:00,
2013-01-18 11:36:00,35.1,25.6,30.16,SW,217,6.0,19.0,68,0.00,,,0.00,WeatherCatV1.01B143,2013-01-18 17:36:00,
2013-01-18 11:41:00,35.5,25.6,30.15,South,185,15.0,24.0,67,0.00,,,0.00,WeatherCatV1.01B143,2013-01-18 17:41:00,
2013-01-18 11:46:00,35.8,25.9,30.15,South,170,10.0,17.0,67,0.00,,,0.00,WeatherCatV1.01B143,2013-01-18 17:46:00,
2013-01-18 11:51:00,36.4,26.5,30.14,SSW,208,11.0,22.0,67,0.00,,,0.00,WeatherCatV1.01B143,2013-01-18 17:51:00,
2013-01-18 11:56:00,36.6,26.7,30.14,South,188,11.0,14.0,67,0.00,,,0.00,WeatherCatV1.01B143,2013-01-18 17:56:00,
2013-01-18 12:01:00,36.8,26.9,30.13,SSW,210,10.0,14.0,67,0.00,,,0.00,WeatherCatV1.01B143,2013-01-18 18:01:00,
2013-01-18 12:06:00,37.2,27.3,30.12,SSW,197,19.0,19.0,67,0.00,,,0.00,WeatherCatV1.01B143,2013-01-18 18:06:00,
2013-01-18 12:11:00,37.3,27.0,30.12,South,176,12.0,20.0,66,0.00,,,0.00,WeatherCatV1.01B143,2013-01-18 18:11:00,
2013-01-18 12:17:00,37.8,27.5,30.11,South,187,12.0,26.0,66,0.00,,,0.00,WeatherCatV1.01B143,2013-01-18 18:17:00,
2013-01-18 12:22:00,38.0,27.7,30.10,SSW,195,14.0,18.0,66,0.00,,,0.00,WeatherCatV1.01B143,2013-01-18 18:22:00,
2013-01-18 12:27:00,38.1,27.8,30.09,SSW,211,15.0,23.0,66,0.00,,,0.00,WeatherCatV1.01B143,2013-01-18 18:27:00,
2013-01-18 12:32:00,38.3,28.0,30.09,SW,218,16.0,16.0,66,0.00,,,0.00,WeatherCatV1.01B143,2013-01-18 18:32:00,
2013-01-18 12:37:00,38.5,28.1,30.08,South,184,5.0,14.0,66,0.00,,,0.00,WeatherCatV1.01B143,2013-01-18 18:37:00,
2013-01-18 12:42:00,38.5,28.1,30.08,South,188,17.0,31.0,66,0.00,,,0.00,WeatherCatV1.01B143,2013-01-18 18:42:00,
2013-01-18 12:47:00,38.5,28.1,30.07,SSW,211,28.0,28.0,66,0.00,,,0.00,WeatherCatV1.01B143,2013-01-18 18:47:00,
2013-01-18 12:52:00,38.7,28.3,30.07,SSW,203,15.0,19.0,66,0.00,,,0.00,WeatherCatV1.01B143,2013-01-18 18:52:00,
2013-01-18 12:57:00,38.8,28.8,30.06,SW,215,16.0,19.0,67,0.00,,,0.00,WeatherCatV1.01B143,2013-01-18 18:57:00,
2013-01-18 13:02:00,39.0,28.6,30.06,ESE,113,9.0,20.0,66,0.00,,,0.00,WeatherCatV1.01B143,2013-01-18 19:02:00,
2013-01-18 13:07:00,39.1,29.1,30.05,SW,218,7.0,23.0,67,0.00,,,0.00,WeatherCatV1.01B143,2013-01-18 19:07:00,
2013-01-18 13:12:00,39.3,29.3,30.05,SSE,153,10.0,22.0,67,0.00,,,0.00,WeatherCatV1.01B143,2013-01-18 19:12:00,
2013-01-18 13:17:00,39.6,29.6,30.05,South,191,9.0,13.0,67,0.00,,,0.00,WeatherCatV1.01B143,2013-01-18 19:17:00,
2013-01-18 13:22:00,39.9,29.8,30.04,South,170,8.0,17.0,67,0.00,,,0.00,WeatherCatV1.01B143,2013-01-18 19:22:00,
2013-01-18 13:27:00,39.9,29.5,30.04,WSW,240,12.0,17.0,66,0.00,,,0.00,WeatherCatV1.01B143,2013-01-18 19:27:00,
2013-01-18 13:32:00,40.2,30.1,30.03,WSW,250,12.0,23.0,67,0.00,,,0.00,WeatherCatV1.01B143,2013-01-18 19:32:00,
2013-01-18 13:37:00,40.5,30.0,30.03,SSW,204,17.0,22.0,66,0.00,,,0.01,WeatherCatV1.01B143,2013-01-18 19:37:00,
2013-01-18 13:42:00,40.7,30.2,30.03,SSW,210,22.0,22.0,66,0.00,,,0.01,WeatherCatV1.01B143,2013-01-18 19:42:00,
2013-01-18 13:47:00,40.8,30.3,30.02,South,173,7.0,23.0,66,0.00,,,0.01,WeatherCatV1.01B143,2013-01-18 19:47:00,
2013-01-18 13:52:00,40.8,30.3,30.02,SSW,207,13.0,24.0,66,0.00,,,0.01,WeatherCatV1.01B143,2013-01-18 19:52:00,
2013-01-18 13:57:00,40.9,30.4,30.02,SSW,193,9.0,27.0,66,0.00,,,0.01,WeatherCatV1.01B143,2013-01-18 19:57:00,
2013-01-18 14:02:00,40.9,30.4,30.02,SSW,198,10.0,25.0,66,0.00,,,0.01,WeatherCatV1.01B143,2013-01-18 20:02:00,
2013-01-18 14:07:00,40.6,30.1,30.01,SSW,201,11.0,26.0,66,0.00,,,0.01,WeatherCatV1.01B143,2013-01-18 20:07:00,
2013-01-18 14:12:00,40.7,30.2,30.01,South,186,12.0,18.0,66,0.00,,,0.01,WeatherCatV1.01B143,2013-01-18 20:12:00,
2013-01-18 14:17:00,40.7,30.6,30.01,SSW,211,6.0,19.0,67,0.00,,,0.01,WeatherCatV1.01B143,2013-01-18 20:17:00,
2013-01-18 14:22:00,40.8,30.7,30.00,SSW,205,12.0,32.0,67,0.00,,,0.01,WeatherCatV1.01B143,2013-01-18 20:22:00,
2013-01-18 14:27:00,40.8,30.7,30.00,SW,229,14.0,18.0,67,0.00,,,0.01,WeatherCatV1.01B143,2013-01-18 20:27:00,
2013-01-18 14:32:00,40.7,30.6,29.99,SSW,212,17.0,17.0,67,0.00,,,0.01,WeatherCatV1.01B143,2013-01-18 20:32:00,
2013-01-18 14:37:00,40.9,30.8,29.99,SSW,212,7.0,12.0,67,0.00,,,0.01,WeatherCatV1.01B143,2013-01-18 20:37:00,
2013-01-18 14:42:00,40.9,30.4,29.98,SW,226,17.0,22.0,66,0.00,,,0.01,WeatherCatV1.01B143,2013-01-18 20:42:00,
2013-01-18 14:47:00,41.0,30.9,29.97,SSE,165,15.0,24.0,67,0.00,,,0.01,WeatherCatV1.01B143,2013-01-18 20:47:00,
2013-01-18 14:52:00,41.1,31.0,29.97,SW,218,9.0,18.0,67,0.00,,,0.01,WeatherCatV1.01B143,2013-01-18 20:52:00,
2013-01-18 14:57:00,41.2,30.7,29.97,South,179,11.0,22.0,66,0.00,,,0.01,WeatherCatV1.01B143,2013-01-18 20:57:00,
2013-01-18 15:02:00,41.3,31.2,29.97,SSW,203,6.0,13.0,67,0.00,,,0.01,WeatherCatV1.01B143,2013-01-18 21:02:00,
2013-01-18 15:07:00,41.3,30.8,29.97,South,191,7.0,26.0,66,0.00,,,0.01,WeatherCatV1.01B143,2013-01-18 21:07:00,
2013-01-18 15:12:00,41.2,31.1,29.97,South,186,19.0,23.0,67,0.00,,,0.01,WeatherCatV1.01B143,2013-01-18 21:12:00,
2013-01-18 15:17:00,41.2,31.1,29.96,South,187,12.0,22.0,67,0.00,,,0.01,WeatherCatV1.01B143,2013-01-18 21:17:00,
2013-01-18 15:22:00,41.3,30.8,29.96,SSW,211,15.0,27.0,66,0.00,,,0.01,WeatherCatV1.01B143,2013-01-18 21:22:00,
2013-01-18 15:27:00,41.4,31.3,29.96,SSW,193,7.0,13.0,67,0.00,,,0.01,WeatherCatV1.01B143,2013-01-18 21:27:00,
2013-01-18 15:32:00,41.4,30.9,29.96,South,188,6.0,13.0,66,0.00,,,0.01,WeatherCatV1.01B143,2013-01-18 21:32:00,
2013-01-18 15:37:00,41.5,31.0,29.96,ESE,119,10.0,20.0,66,0.00,,,0.01,WeatherCatV1.01B143,2013-01-18 21:37:00,
2013-01-18 15:42:00,41.5,31.0,29.95,SW,215,10.0,21.0,66,0.00,,,0.01,WeatherCatV1.01B143,2013-01-18 21:42:00,
2013-01-18 15:47:00,41.5,31.0,29.95,South,191,8.0,15.0,66,0.00,,,0.01,WeatherCatV1.01B143,2013-01-18 21:47:00,
2013-01-18 15:52:00,41.4,31.3,29.96,SSW,203,12.0,20.0,67,0.00,,,0.01,WeatherCatV1.01B143,2013-01-18 21:52:00,
2013-01-18 15:57:00,41.3,31.2,29.96,SSW,198,8.0,20.0,67,0.00,,,0.01,WeatherCatV1.01B143,2013-01-18 21:57:00,
2013-01-18 16:02:00,41.0,30.9,29.95,SSE,163,7.0,15.0,67,0.00,,,0.01,WeatherCatV1.01B143,2013-01-18 22:02:00,
2013-01-18 16:07:00,40.9,31.2,29.95,South,179,9.0,20.0,68,0.00,,,0.01,WeatherCatV1.01B143,2013-01-18 22:07:00,
2013-01-18 16:12:00,40.8,31.1,29.95,South,184,9.0,16.0,68,0.00,,,0.01,WeatherCatV1.01B143,2013-01-18 22:12:00,
2013-01-18 16:17:00,40.7,31.0,29.95,SSE,166,12.0,20.0,68,0.00,,,0.01,WeatherCatV1.01B143,2013-01-18 22:17:00,
2013-01-18 16:22:00,40.5,31.1,29.95,SSW,207,7.0,18.0,69,0.00,,,0.01,WeatherCatV1.01B143,2013-01-18 22:22:00,
2013-01-18 16:27:00,40.4,31.0,29.95,SSE,165,6.0,17.0,69,0.00,,,0.01,WeatherCatV1.01B143,2013-01-18 22:27:00,
2013-01-18 16:32:00,40.1,31.1,29.95,SW,223,17.0,17.0,70,0.00,,,0.01,WeatherCatV1.01B143,2013-01-18 22:32:00,
2013-01-18 16:37:00,39.8,30.8,29.95,South,178,4.0,16.0,70,0.00,,,0.01,WeatherCatV1.01B143,2013-01-18 22:37:00,
2013-01-18 16:42:00,39.4,30.8,29.95,SE,138,7.0,14.0,71,0.00,,,0.01,WeatherCatV1.01B143,2013-01-18 22:42:00,
2013-01-18 16:47:00,39.2,30.9,29.95,SW,218,12.0,12.0,72,0.00,,,0.01,WeatherCatV1.01B143,2013-01-18 22:47:00,
2013-01-18 16:52:00,39.0,30.8,29.96,SW,217,12.0,12.0,72,0.00,,,0.01,WeatherCatV1.01B143,2013-01-18 22:52:00,
2013-01-18 16:57:00,38.9,31.0,29.95,SSW,205,7.0,18.0,73,0.00,,,0.01,WeatherCatV1.01B143,2013-01-18 22:57:00,
2013-01-18 17:02:00,38.8,30.9,29.95,SSW,207,12.0,18.0,73,0.00,,,0.01,WeatherCatV1.01B143,2013-01-18 23:02:00,
2013-01-18 17:07:00,38.7,30.8,29.96,South,180,10.0,17.0,73,0.00,,,0.01,WeatherCatV1.01B143,2013-01-18 23:07:00,
2013-01-18 17:12:00,38.5,30.9,29.96,South,187,6.0,17.0,74,0.00,,,0.01,WeatherCatV1.01B143,2013-01-18 23:12:00,
2013-01-18 17:17:00,38.5,30.9,29.96,SSW,210,9.0,17.0,74,0.00,,,0.01,WeatherCatV1.01B143,2013-01-18 23:17:00,
2013-01-18 17:22:00,38.5,30.9,29.96,SSW,194,6.0,18.0,74,0.00,,,0.01,WeatherCatV1.01B143,2013-01-18 23:22:00,
2013-01-18 17:27:00,38.5,30.9,29.96,South,189,7.0,17.0,74,0.00,,,0.01,WeatherCatV1.01B143,2013-01-18 23:27:00,
2013-01-18 17:32:00,38.4,30.8,29.96,SSE,158,11.0,15.0,74,0.00,,,0.01,WeatherCatV1.01B143,2013-01-18 23:32:00,
2013-01-18 17:37:00,38.3,31.1,29.96,South,181,9.0,10.0,75,0.00,,,0.01,WeatherCatV1.01B143,2013-01-18 23:37:00,
2013-01-18 17:42:00,38.2,31.0,29.96,SSW,195,17.0,18.0,75,0.00,,,0.01,WeatherCatV1.01B143,2013-01-18 23:42:00,
2013-01-18 17:47:00,38.2,31.0,29.95,SSW,198,13.0,22.0,75,0.00,,,0.01,WeatherCatV1.01B143,2013-01-18 23:47:00,
2013-01-18 17:52:00,38.2,31.0,29.95,SSW,197,9.0,20.0,75,0.00,,,0.01,WeatherCatV1.01B143,2013-01-18 23:52:00,
2013-01-18 17:57:00,38.2,31.0,29.95,SSW,210,9.0,13.0,75,0.00,,,0.01,WeatherCatV1.01B143,2013-01-18 23:57:00,
2013-01-18 18:02:00,38.2,31.0,29.95,SSE,167,4.0,9.0,75,0.00,,,0.01,WeatherCatV1.01B143,2013-01-19 00:02:00,
2013-01-18 18:07:00,38.1,31.2,29.95,SSW,200,6.0,16.0,76,0.00,,,0.01,WeatherCatV1.01B143,2013-01-19 00:07:00,
2013-01-18 18:12:00,38.1,31.2,29.96,South,181,7.0,15.0,76,0.00,,,0.01,WeatherCatV1.01B143,2013-01-19 00:12:00,
2013-01-18 18:17:00,38.0,31.1,29.96,SSW,205,8.0,14.0,76,0.00,,,0.01,WeatherCatV1.01B143,2013-01-19 00:17:00,
2013-01-18 18:22:00,38.0,31.1,29.95,SSW,212,8.0,24.0,76,0.00,,,0.01,WeatherCatV1.01B143,2013-01-19 00:22:00,
2013-01-18 18:27:00,38.0,31.1,29.96,SSW,207,7.0,15.0,76,0.00,,,0.01,WeatherCatV1.01B143,2013-01-19 00:27:00,
2013-01-18 18:32:00,38.0,31.1,29.96,SSE,160,13.0,14.0,76,0.00,,,0.01,WeatherCatV1.01B143,2013-01-19 00:32:00,
2013-01-18 18:37:00,37.9,31.0,29.96,South,187,7.0,13.0,76,0.00,,,0.01,WeatherCatV1.01B143,2013-01-19 00:37:00,
2013-01-18 18:42:00,37.9,31.0,29.96,South,174,9.0,12.0,76,0.00,,,0.01,WeatherCatV1.01B143,2013-01-19 00:42:00,
2013-01-18 18:48:00,37.8,31.2,29.95,SSW,205,14.0,19.0,77,0.00,,,0.01,WeatherCatV1.01B143,2013-01-19 00:48:00,
2013-01-18 18:53:00,37.7,31.2,29.95,South,183,7.0,22.0,77,0.00,,,0.01,WeatherCatV1.01B143,2013-01-19 00:53:00,
2013-01-18 18:58:00,37.8,31.2,29.95,SSW,208,9.0,21.0,77,0.00,,,0.01,WeatherCatV1.01B143,2013-01-19 00:58:00,
2013-01-18 19:03:00,37.7,31.2,29.95,South,188,8.0,16.0,77,0.00,,,0.01,WeatherCatV1.01B143,2013-01-19 01:03:00,
2013-01-18 19:08:00,37.6,31.1,29.95,SSW,208,7.0,15.0,77,0.00,,,0.01,WeatherCatV1.01B143,2013-01-19 01:08:00,
2013-01-18 19:13:00,37.7,31.2,29.95,SW,217,11.0,14.0,77,0.00,,,0.01,WeatherCatV1.01B143,2013-01-19 01:13:00,
2013-01-18 19:18:00,37.7,31.2,29.95,South,184,6.0,18.0,77,0.00,,,0.01,WeatherCatV1.01B143,2013-01-19 01:18:00,
2013-01-18 19:23:00,37.7,31.2,29.95,SW,222,6.0,22.0,77,0.00,,,0.01,WeatherCatV1.01B143,2013-01-19 01:23:00,
2013-01-18 19:28:00,37.6,31.1,29.95,SSW,194,5.0,20.0,77,0.00,,,0.01,WeatherCatV1.01B143,2013-01-19 01:28:00,
2013-01-18 19:33:00,37.5,31.0,29.95,SSW,208,7.0,17.0,77,0.00,,,0.01,WeatherCatV1.01B143,2013-01-19 01:33:00,
2013-01-18 19:38:00,37.5,31.0,29.95,SSE,166,6.0,15.0,77,0.00,,,0.01,WeatherCatV1.01B143,2013-01-19 01:38:00,
2013-01-18 19:43:00,37.4,30.9,29.95,SSE,153,12.0,13.0,77,0.00,,,0.01,WeatherCatV1.01B143,2013-01-19 01:43:00,
2013-01-18 19:48:00,37.3,30.8,29.95,SW,229,7.0,14.0,77,0.00,,,0.01,WeatherCatV1.01B143,2013-01-19 01:48:00,
2013-01-18 19:53:00,37.2,30.7,29.95,South,187,10.0,17.0,77,0.00,,,0.01,WeatherCatV1.01B143,2013-01-19 01:53:00,
2013-01-18 19:58:00,37.2,30.7,29.94,SSW,193,7.0,19.0,77,0.00,,,0.01,WeatherCatV1.01B143,2013-01-19 01:58:00,
2013-01-18 20:03:00,37.2,30.7,29.94,SSW,208,14.0,20.0,77,0.00,,,0.01,WeatherCatV1.01B143,2013-01-19 02:03:00,
2013-01-18 20:08:00,37.2,30.7,29.94,SSE,164,11.0,20.0,77,0.00,,,0.01,WeatherCatV1.01B143,2013-01-19 02:08:00,
2013-01-18 20:13:00,37.3,30.8,29.94,South,181,8.0,16.0,77,0.00,,,0.01,WeatherCatV1.01B143,2013-01-19 02:13:00,
2013-01-18 20:18:00,37.3,30.8,29.94,South,182,6.0,13.0,77,0.00,,,0.01,WeatherCatV1.01B143,2013-01-19 02:18:00,
2013-01-18 20:23:00,37.2,30.7,29.94,SSW,193,11.0,15.0,77,0.00,,,0.01,WeatherCatV1.01B143,2013-01-19 02:23:00,
2013-01-18 20:28:00,37.2,30.7,29.94,South,186,6.0,14.0,77,0.00,,,0.01,WeatherCatV1.01B143,2013-01-19 02:28:00,
2013-01-18 20:33:00,37.2,30.7,29.94,SSW,197,7.0,18.0,77,0.00,,,0.01,WeatherCatV1.01B143,2013-01-19 02:33:00,
2013-01-18 20:38:00,37.2,30.3,29.94,SSW,195,7.0,16.0,76,0.00,,,0.01,WeatherCatV1.01B143,2013-01-19 02:38:00,
2013-01-18 20:43:00,37.3,30.4,29.93,South,183,11.0,13.0,76,0.00,,,0.01,WeatherCatV1.01B143,2013-01-19 02:43:00,
2013-01-18 20:48:00,37.3,30.4,29.93,SSW,208,2.0,10.0,76,0.00,,,0.01,WeatherCatV1.01B143,2013-01-19 02:48:00,
2013-01-18 20:53:00,37.1,30.2,29.93,SSW,204,5.0,12.0,76,0.00,,,0.01,WeatherCatV1.01B143,2013-01-19 02:53:00,
2013-01-18 20:58:00,37.2,30.3,29.93,South,190,5.0,14.0,76,0.00,,,0.01,WeatherCatV1.01B143,2013-01-19 02:58:00,
2013-01-18 21:03:00,37.2,30.3,29.92,South,181,4.0,13.0,76,0.00,,,0.01,WeatherCatV1.01B143,2013-01-19 03:03:00,
2013-01-18 21:08:00,37.2,30.3,29.93,SSW,207,8.0,10.0,76,0.00,,,0.01,WeatherCatV1.01B143,2013-01-19 03:08:00,
2013-01-18 21:13:00,37.1,30.2,29.92,SSW,207,5.0,12.0,76,0.00,,,0.01,WeatherCatV1.01B143,2013-01-19 03:13:00,
2013-01-18 21:18:00,37.1,30.2,29.92,SSW,207,8.0,12.0,76,0.00,,,0.01,WeatherCatV1.01B143,2013-01-19 03:18:00,
2013-01-18 21:23:00,37.0,30.2,29.92,SW,219,7.0,13.0,76,0.00,,,0.01,WeatherCatV1.01B143,2013-01-19 03:23:00,
2013-01-18 21:28:00,37.0,30.2,29.92,SSW,211,4.0,11.0,76,0.00,,,0.01,WeatherCatV1.01B143,2013-01-19 03:28:00,
2013-01-18 21:33:00,36.9,30.1,29.92,SSW,210,5.0,14.0,76,0.00,,,0.01,WeatherCatV1.01B143,2013-01-19 03:33:00,
2013-01-18 21:38:00,36.9,30.1,29.92,SSW,205,6.0,12.0,76,0.00,,,0.01,WeatherCatV1.01B143,2013-01-19 03:38:00,
2013-01-18 21:44:00,37.0,30.2,29.92,SSW,205,3.0,14.0,76,0.00,,,0.01,WeatherCatV1.01B143,2013-01-19 03:44:00,
2013-01-18 21:49:00,37.1,29.9,29.92,South,187,8.0,10.0,75,0.00,,,0.01,WeatherCatV1.01B143,2013-01-19 03:49:00,
2013-01-18 21:54:00,37.3,30.1,29.91,SSW,198,7.0,12.0,75,0.00,,,0.01,WeatherCatV1.01B143,2013-01-19 03:54:00,
2013-01-18 21:59:00,37.5,30.0,29.91,SSW,210,6.0,9.0,74,0.00,,,0.01,WeatherCatV1.01B143,2013-01-19 03:59:00,
2013-01-18 22:04:00,37.6,30.1,29.91,SSW,197,11.0,13.0,74,0.00,,,0.01,WeatherCatV1.01B143,2013-01-19 04:04:00,
2013-01-18 22:09:00,37.6,30.1,29.91,SW,214,14.0,14.0,74,0.00,,,0.01,WeatherCatV1.01B143,2013-01-19 04:09:00,
2013-01-18 22:14:00,37.6,30.1,29.91,SSW,193,6.0,13.0,74,0.00,,,0.01,WeatherCatV1.01B143,2013-01-19 04:14:00,
2013-01-18 22:19:00,37.6,30.1,29.91,WSW,248,7.0,9.0,74,0.00,,,0.01,WeatherCatV1.01B143,2013-01-19 04:19:00,
2013-01-18 22:24:00,37.6,30.1,29.91,SSE,162,9.0,15.0,74,0.00,,,0.01,WeatherCatV1.01B143,2013-01-19 04:24:00,
2013-01-18 22:29:00,37.6,30.1,29.91,SW,218,3.0,12.0,74,0.00,,,0.01,WeatherCatV1.01B143,2013-01-19 04:29:00,
2013-01-18 22:34:00,37.5,30.0,29.91,SSE,155,5.0,10.0,74,0.00,,,0.01,WeatherCatV1.01B143,2013-01-19 04:34:00,
2013-01-18 22:39:00,37.5,30.0,29.91,SSW,197,7.0,12.0,74,0.00,,,0.01,WeatherCatV1.01B143,2013-01-19 04:39:00,
2013-01-18 22:44:00,37.5,30.0,29.91,South,181,10.0,14.0,74,0.00,,,0.01,WeatherCatV1.01B143,2013-01-19 04:44:00,
2013-01-18 22:49:00,37.5,30.0,29.90,SW,230,8.0,13.0,74,0.00,,,0.01,WeatherCatV1.01B143,2013-01-19 04:49:00,
2013-01-18 22:54:00,37.6,30.1,29.91,SSW,198,7.0,11.0,74,0.00,,,0.01,WeatherCatV1.01B143,2013-01-19 04:54:00,
2013-01-18 22:59:00,37.5,30.0,29.91,SSW,205,6.0,11.0,74,0.00,,,0.01,WeatherCatV1.01B143,2013-01-19 04:59:00,
2013-01-18 23:01:00,37.5,30.0,29.91,SSW,208,5.0,9.0,74,0.00,,,0.01,WeatherCatV1.01B143,2013-01-19 05:01:00,
2013-01-18 23:04:00,37.5,30.0,29.90,SSW,198,6.0,13.0,74,0.00,,,0.01,WeatherCatV1.01B143,2013-01-19 05:04:00,
2013-01-18 23:09:00,37.5,30.0,29.91,SW,226,4.0,14.0,74,0.00,,,0.01,WeatherCatV1.01B143,2013-01-19 05:09:00,
2013-01-18 23:14:00,37.5,30.0,29.90,SSW,201,10.0,15.0,74,0.00,,,0.01,WeatherCatV1.01B143,2013-01-19 05:14:00,
2013-01-18 23:16:00,37.5,30.0,29.90,SW,221,6.0,11.0,74,0.00,,,0.01,WeatherCatV1.01B143,2013-01-19 05:16:00,
2013-01-18 23:21:00,37.4,29.9,29.91,South,191,13.0,15.0,74,0.00,,,0.01,WeatherCatV1.01B143,2013-01-19 05:21:00,
2013-01-18 23:26:00,37.4,29.9,29.91,SSE,157,6.0,9.0,74,0.00,,,0.01,WeatherCatV1.01B143,2013-01-19 05:26:00,
2013-01-18 23:31:00,37.5,30.0,29.91,SW,224,2.0,8.0,74,0.00,,,0.01,WeatherCatV1.01B143,2013-01-19 05:31:00,
2013-01-18 23:33:00,37.4,29.9,29.91,West,270,5.0,11.0,74,0.00,,,0.01,WeatherCatV1.01B143,2013-01-19 05:33:00,
2013-01-18 23:38:00,37.3,29.8,29.91,SW,215,4.0,9.0,74,0.00,,,0.01,WeatherCatV1.01B143,2013-01-19 05:38:00,
2013-01-18 23:43:00,37.2,30.0,29.91,SW,221,7.0,7.0,75,0.00,,,0.01,WeatherCatV1.01B143,2013-01-19 05:43:00,
2013-01-18 23:48:00,37.2,30.0,29.90,WSW,238,4.0,11.0,75,0.00,,,0.01,WeatherCatV1.01B143,2013-01-19 05:48:00,
2013-01-18 23:53:00,37.2,30.0,29.90,SSW,208,2.0,7.0,75,0.00,,,0.01,WeatherCatV1.01B143,2013-01-19 05:53:00,
2013-01-18 23:58:00,37.3,30.1,29.90,WSW,248,5.0,12.0,75,0.00,,,0.01,WeatherCatV1.01B143,2013-01-19 05:58:00,